Regional Weather Roundup
Issued by NWS

Home | Current Version | Previous Version | Graphics & Text | Print | Product List | Glossary On
Versions: 1 2 3 4 5 6 7 8 9 10 11 12 13 14 15 16 17 18 19 20 21 22 23 24 25 26 27 28 29 30 31 32 33 34 35 36 37 38 39 40 41 42 43 44 45 46 47 48 49 50
000
ASUS43 KLOT 160758
RWRIL

ILLINOIS REGIONAL WEATHER ROUNDUP
NATIONAL WEATHER SERVICE CHICAGO/ROMEOVILLE IL
300 AM CDT TUE SEP 16 2014

NOTE: "FAIR" INDICATES FEW OR NO CLOUDS BELOW 12,000 FEET WITH NO
SIGNIFICANT WEATHER AND/OR OBSTRUCTIONS TO VISIBILITY.

* THESE STATIONS ARE NOT UNDER NWS QUALITY CONTROL. THEY ALSO MAY NOT
  REPORT WEATHER SUCH AS PRECIPITATION OR FOG.

ILZ001-002-007-009-015-016-024-160900-
NORTHWEST ILLINOIS

CITY           SKY/WX    TMP DP  RH WIND       PRES   REMARKS
MOLINE         CLEAR     44  42  93 CALM      30.23S FOG
$$

ILZ003-004-008-010-011-017-018-160900-
NORTH CENTRAL ILLINOIS

CITY           SKY/WX    TMP DP  RH WIND       PRES   REMARKS
ROCKFORD       NOT AVBL
$$

ILZ005-006-012>014-019>023-160900-
NORTHEAST ILLINOIS

CITY           SKY/WX    TMP DP  RH WIND       PRES   REMARKS
CHICAGO-OHARE  CLEAR     49  46  90 W3        30.18S
CHICAGO-MIDWAY PTCLDY    51  47  86 NW6       30.19R
AURORA         CLEAR     42  40  92 CALM      30.20S FOG
WAUKEGAN       CLEAR     45  43  93 NW3       30.17F
DUPAGE AIRPORT CLEAR     45  43  93 W3        30.19S
WHEELING       CLEAR     47  44  90 N3        30.19F
NORTHERLY ISL    N/A     54  46  74 W3          N/A
$$

LMZ740>746-160900-
SOUTHERN LAKE MICHIGAN

STATION/POSITION SKY/WX   TEMP    WIND        PRES    VSBY  WAVE
                          AIR SEA DIR/SP/G                  HT/PER
                          (F)     (DEG/KT/KT) (MB)    (MI)  (FT/S)
SOUTHERN BUOY              58 64  310/ 10/ 12 1021.7R         1/ 3
WAUKEGAN HARBOR            50     320/  5/  8   N/A
HARRISON CRIB              54     330/ 13/ 15   N/A
BURNHAM HARBOR             55     330/  4/ 10   N/A
CALUMET HARBOR             53     300/  4/  6 1020.5
MICHIGAN CITY              58     340/ 13/ 16   N/A
MICHIGAN CITY 6N           59 64   10/ 12/ 16   N/A           4/ 5
ST. JOSEPH                 56 66   80/  8/ 10   N/A           3/ 5
$$

ILZ025>027-034>036-040-047-049-050-058-095>099-160900-
WEST-CENTRAL ILLINOIS

CITY           SKY/WX    TMP DP  RH WIND       PRES   REMARKS
$$

ILZ028>032-037-038-041>044-048-051>054-059>061-160900-
CENTRAL ILLINOIS

CITY           SKY/WX    TMP DP  RH WIND       PRES   REMARKS
PEORIA         NOT AVBL
SPRINGFIELD    CLOUDY    55  53  93 N7        30.21S
TAYLORVILLE    NOT AVBL
$$

ILZ033-039-045-046-055>057-062-063-160900-
EAST-CENTRAL ILLINOIS

CITY           SKY/WX    TMP DP  RH WIND       PRES   REMARKS
CHAMPAIGN      CLOUDY    55  53  93 N8        30.18S FOG
$$

ILZ079-100>102-160900-
SOUTHWEST ILLINOIS

CITY           SKY/WX    TMP DP  RH WIND       PRES   REMARKS
$$

ILZ064>066-069>071-074>076-080>082-084>086-088>090-092>094-160900-
SOUTH-CENTRAL ILLINOIS

CITY           SKY/WX    TMP DP  RH WIND       PRES   REMARKS
CARBONDALE     CLOUDY    63  57  82 N7        30.16R
$$

ILZ067-068-072-073-078-083-087-091-160900-
SOUTHEAST ILLINOIS

CITY           SKY/WX    TMP DP  RH WIND       PRES   REMARKS
$$

ABBREVIATIONS USED IN REMARKS
   TC - TEMPERATURE IN CELSIUS
  WCI - WIND CHILL INDEX
   HX - HEAT INDEX
  VSB - VISIBILITY
$$




USA.gov is the U.S. government's official web portal to all federal, state and local government web resources and services.